Weather History for KAYS - April, 2013

Change the Weather History Date:

Saturday, April 27, 2013

  Actual Average (KAMG) Record (KAMG)
Temperature  
Mean Temperature 68 °F 69 °F  
Max Temperature 82 °F 81 °F 96 °F (1986)
Min Temperature 55 °F 56 °F 41 °F (1972)
Degree Days  
Heating Degree Days 0 1  
Month to date heating degree days 60  
Since 1 July heating degree days 1649  
Cooling Degree Days 4 5  
Month to date cooling degree days 85  
Year to date cooling degree days 139  
Growing Degree Days 18 (Base 50)    
Moisture  
Dew Point 56 °F    
Average Humidity 68    
Maximum Humidity 100    
Minimum Humidity 39    
Precipitation  
Precipitation 0.00 in 0.08 in 1.55 in (1964)
Month to date precipitation 2.59  
Year to date precipitation 15.40  
Snow  
Snow 0.00 in 0.00 in 0.00 in ()
Month to date snowfall 0.0  
Since 1 July snowfall 0.1  
Snow Depth -    
Sea Level Pressure  
Sea Level Pressure 30.23 in    
Wind  
Wind Speed 7 mph (East)    
Max Wind Speed 14 mph    
Max Gust Speed 22 mph    
Visibility 10 miles    
Events      
T = Trace of Precipitation, MM = Missing Value Source: NWS Daily Summary

Daily Weather History Graph

Daily Weather History Graph

Search for Another Location

Airport or City:

Trip Planner

Search our weather history database for the weather conditions in past years. The results will help you decide how hot, cold, wet, or windy it might be!

Date:

Astronomy

Apr. 27, 2013 Rise Set
Actual Time 6:48 AM EDT 8:06 PM EDT
Civil Twilight 6:22 AM EDT 8:31 PM EDT
Nautical Twilight 5:52 AM EDT 9:02 PM EDT
Astronomical Twilight 5:21 AM EDT 9:34 PM EDT
Moon 10:27 PM EDT (4/27) 8:11 AM EDT (4/27)
Length of Visible Light 14h 08m
Length of Day
13h 17m
Waning Gibbous, 95% of the Moon is Illuminated
Apr 27
Waning Gibbous
May 2
Last Quarter
May 9
New
May 18
First Quarter
May 25
Full

Hourly Weather History & Observations

Time (EDT) Temp. Heat Index Dew Point Humidity Pressure Visibility Wind Dir Wind Speed Gust Speed Precip Events Conditions
12:15 AM 60.8 °F - 55.4 °F 82% 30.28 in 10.0 mi East 9.2 mph - N/A   Clear
12:35 AM 60.8 °F - 55.4 °F 82% 30.26 in 10.0 mi ESE 8.1 mph - N/A   Clear
12:55 AM 60.8 °F - 55.4 °F 82% 30.27 in 10.0 mi ESE 9.2 mph - N/A   Clear
1:15 AM 60.8 °F - 55.4 °F 82% 30.27 in 10.0 mi East 5.8 mph - N/A   Clear
1:35 AM 57.2 °F - 55.4 °F 94% 30.28 in 10.0 mi ENE 4.6 mph - N/A   Clear
1:55 AM 57.2 °F - 55.4 °F 94% 30.28 in 10.0 mi Calm Calm - N/A   Clear
2:15 AM 57.2 °F - 55.4 °F 94% 30.27 in 10.0 mi Calm Calm - N/A   Clear
2:35 AM 55.4 °F - 53.6 °F 94% 30.28 in 7.0 mi NNE 3.5 mph - N/A   Clear
2:55 AM 55.4 °F - 53.6 °F 94% 30.28 in 7.0 mi North 3.5 mph - N/A   Clear
3:15 AM 55.4 °F - 55.4 °F 100% 30.28 in 7.0 mi Calm Calm - N/A   Unknown
3:35 AM 55.4 °F - 55.4 °F 100% 30.27 in 7.0 mi Calm Calm - N/A   Unknown
3:55 AM 55.4 °F - 53.6 °F 94% 30.27 in 7.0 mi Calm Calm - N/A   Unknown
4:15 AM 55.4 °F - 55.4 °F 100% 30.27 in 7.0 mi NE 3.5 mph - N/A   Unknown
4:35 AM 55.4 °F - 55.4 °F 100% 30.26 in 7.0 mi ENE 3.5 mph - N/A   Unknown
4:55 AM 55.4 °F - 55.4 °F 100% 30.26 in 7.0 mi East 3.5 mph - N/A   Unknown
5:15 AM 55.4 °F - 55.4 °F 100% 30.25 in 10.0 mi East 3.5 mph - N/A   Unknown
5:35 AM 55.4 °F - 55.4 °F 100% 30.26 in 7.0 mi Calm Calm - N/A   Unknown
5:55 AM 55.4 °F - 55.4 °F 100% 30.26 in 10.0 mi East 3.5 mph - N/A   Unknown
6:15 AM 55.4 °F - 55.4 °F 100% 30.25 in 10.0 mi East 4.6 mph - N/A   Unknown
7:35 AM 57.2 °F - 55.4 °F 94% 30.27 in 10.0 mi East 4.6 mph - N/A   Unknown
7:55 AM 60.8 °F - 55.4 °F 82% 30.29 in 10.0 mi ENE 3.5 mph - N/A   Unknown
8:15 AM 60.8 °F - 55.4 °F 82% 30.29 in 10.0 mi ENE 3.5 mph - N/A   Clear
8:35 AM 62.6 °F - 57.2 °F 82% 30.29 in 10.0 mi East 5.8 mph - N/A   Clear
8:55 AM 64.4 °F - 57.2 °F 77% 30.29 in 10.0 mi East 8.1 mph - N/A   Clear
9:15 AM 68.0 °F - 59.0 °F 73% 30.28 in 10.0 mi East 10.4 mph - N/A   Clear
9:35 AM 69.8 °F - 59.0 °F 68% 30.28 in 10.0 mi East 10.4 mph 17.3 mph N/A   Clear
9:55 AM 71.6 °F - 59.0 °F 64% 30.27 in 10.0 mi ESE 12.7 mph - N/A   Clear
10:15 AM 73.4 °F - 59.0 °F 61% 30.27 in 10.0 mi East 10.4 mph - N/A   Clear
10:35 AM 73.4 °F - 60.8 °F 65% 30.28 in 10.0 mi East 9.2 mph - N/A   Clear
10:55 AM 75.2 °F - 59.0 °F 57% 30.28 in 10.0 mi ESE 11.5 mph - N/A   Clear
11:15 AM 75.2 °F - 60.8 °F 61% 30.27 in 10.0 mi East 11.5 mph - N/A   Clear
11:35 AM 77.0 °F - 57.2 °F 50% 30.27 in 10.0 mi East 9.2 mph 18.4 mph N/A   Scattered Clouds
11:55 AM 77.0 °F - 57.2 °F 50% 30.26 in 10.0 mi SE 8.1 mph - N/A   Scattered Clouds
12:15 PM 78.8 °F - 57.2 °F 47% 30.26 in 10.0 mi ESE 11.5 mph 16.1 mph N/A   Scattered Clouds
12:35 PM 78.8 °F - 55.4 °F 44% 30.25 in 10.0 mi East 6.9 mph 17.3 mph N/A   Scattered Clouds
12:55 PM 80.6 °F 80.5 °F 55.4 °F 42% 30.24 in 10.0 mi SE 10.4 mph 18.4 mph N/A   Scattered Clouds
1:15 PM 78.8 °F - 55.4 °F 44% 30.24 in 10.0 mi ESE 11.5 mph - N/A   Scattered Clouds
1:35 PM 78.8 °F - 55.4 °F 44% 30.23 in 10.0 mi ESE 10.4 mph - N/A   Scattered Clouds
1:55 PM 78.8 °F - 55.4 °F 44% 30.23 in 10.0 mi ESE 9.2 mph - N/A   Mostly Cloudy
2:15 PM 78.8 °F - 53.6 °F 42% 30.23 in 10.0 mi ENE 5.8 mph 9.2 mph N/A   Mostly Cloudy
2:35 PM 80.6 °F 80.3 °F 53.6 °F 39% 30.22 in 10.0 mi East 10.4 mph 16.1 mph N/A   Mostly Cloudy
2:55 PM 80.6 °F 80.3 °F 53.6 °F 39% 30.21 in 10.0 mi ESE 6.9 mph 10.4 mph N/A   Scattered Clouds
3:15 PM 82.4 °F 81.7 °F 55.4 °F 39% 30.21 in 10.0 mi East 8.1 mph - N/A   Mostly Cloudy
3:35 PM 82.4 °F 81.7 °F 55.4 °F 39% 30.20 in 10.0 mi East 10.4 mph 16.1 mph N/A   Mostly Cloudy
3:55 PM 78.8 °F - 53.6 °F 42% 30.19 in 10.0 mi SE 5.8 mph - N/A   Mostly Cloudy
4:15 PM 80.6 °F 80.5 °F 55.4 °F 42% 30.18 in 10.0 mi East 12.7 mph - N/A   Mostly Cloudy
4:35 PM 80.6 °F 80.5 °F 55.4 °F 42% 30.17 in 10.0 mi East 11.5 mph - N/A   Scattered Clouds
4:55 PM 80.6 °F 80.5 °F 55.4 °F 42% 30.17 in 10.0 mi ESE 6.9 mph 10.4 mph N/A   Clear
5:15 PM 80.6 °F 80.5 °F 55.4 °F 42% 30.17 in 10.0 mi ESE 10.4 mph - N/A   Clear
5:35 PM 80.6 °F 80.5 °F 55.4 °F 42% 30.16 in 10.0 mi ESE 8.1 mph - N/A   Scattered Clouds
5:55 PM 78.8 °F - 55.4 °F 44% 30.17 in 10.0 mi East 11.5 mph - N/A   Scattered Clouds
6:15 PM 78.8 °F - 55.4 °F 44% 30.17 in 10.0 mi ESE 10.4 mph - N/A   Scattered Clouds
6:35 PM 78.8 °F - 55.4 °F 44% 30.17 in 10.0 mi ESE 12.7 mph - N/A   Scattered Clouds
6:55 PM 77.0 °F - 57.2 °F 50% 30.17 in 10.0 mi ESE 10.4 mph - N/A   Clear
7:15 PM 75.2 °F - 59.0 °F 57% 30.17 in 10.0 mi East 10.4 mph - N/A   Scattered Clouds
7:35 PM 75.2 °F - 59.0 °F 57% 30.17 in 10.0 mi East 9.2 mph - N/A   Clear
7:55 PM 73.4 °F - 59.0 °F 61% 30.18 in 10.0 mi East 9.2 mph - N/A   Clear
8:15 PM 73.4 °F - 59.0 °F 61% 30.18 in 10.0 mi ESE 9.2 mph - N/A   Clear
8:35 PM 71.6 °F - 57.2 °F 60% 30.18 in 10.0 mi ESE 9.2 mph - N/A   Clear
8:55 PM 69.8 °F - 59.0 °F 68% 30.18 in 10.0 mi East 12.7 mph 19.6 mph N/A   Clear
9:15 PM 69.8 °F - 59.0 °F 68% 30.19 in 10.0 mi East 10.4 mph - N/A   Clear
9:35 PM 69.8 °F - 59.0 °F 68% 30.19 in 10.0 mi East 10.4 mph - N/A   Clear
9:55 PM 68.0 °F - 60.8 °F 78% 30.20 in 10.0 mi East 11.5 mph - N/A   Clear
10:15 PM 66.2 °F - 59.0 °F 78% 30.20 in 10.0 mi East 13.8 mph 21.9 mph N/A   Clear
10:35 PM 66.2 °F - 57.2 °F 73% 30.20 in 10.0 mi East 10.4 mph 16.1 mph N/A   Clear
10:55 PM 66.2 °F - 57.2 °F 73% 30.20 in 10.0 mi East 9.2 mph - N/A   Clear
11:15 PM 64.4 °F - 57.2 °F 77% 30.20 in 10.0 mi ESE 10.4 mph - N/A   Clear
11:35 PM 64.4 °F - 59.0 °F 83% 30.18 in 10.0 mi ESE 10.4 mph - N/A   Clear
11:55 PM 64.4 °F - 59.0 °F 83% 30.17 in 10.0 mi ESE 9.2 mph - N/A   Clear